Other Surface Observations
Issued by NWS Charleston, SC

Home | Current Version | Previous Version | Text Only | Print | Product List | Glossary On
Versions: 1 2 3 4 5 6 7 8 9 10 11 12 13 14 15 16 17 18 19 20 21 22 23 24 25 26 27 28 29 30 31 32 33 34 35 36 37 38 39 40 41 42 43 44 45 46 47 48 49 50
562
SXUS52 KCHS 281828
OSOCHS

MARINE OBSERVATIONS
NATIONAL WEATHER SERVICE CHARLESTON SC
200 PM EDT SUN AUG 28 2016

...DOWNTOWN CHARLESTON AND HARBOR...

CITY           SKY/WX    TMP DP  RH WIND       PRES   REMARKS
WATERFRONT PRK   N/A     88  78  72 E10       30.08F HX 101

...LAKE MOULTRIE...

CITY           SKY/WX    TMP DP  RH WIND       PRES   REMARKS
PINOPOLIS        N/A     84  75  74 NE8       30.05S HX  92

...LAKE AND SUPPLEMENTAL COASTAL OBSERVATIONS...

STATION/POSITION TIME  TEMP    WIND        PRES    WAVE   SWELL
                       AIR SEA DIR/SP/G            HT/PER HT/PER/DIR
                 (UTC) (F)     (DEG/KT/KT) (MB)    (FT/S) (FT/S/D)
FORT PULASKI     1800   84 86   70/ 16/ 17 1019.3F
SAPELO ISLAND    1800   89      70/ 12     1018.0S
WINYAH BAY       1745   84      60/ 10     1019.0S
LAKE MURRAY      1800   89      50/  2/  8 1019.3F
ACE BASIN NERRS  1700   92      50/  5     1019.0S


...C-MAN AND BUOY OBSERVATIONS...

STATION/POSITION TIME  TEMP    WIND        PRES    WAVE   SWELL
                       AIR SEA DIR/SP/G            HT/PER HT/PER/DIR
                 (UTC) (F)     (DEG/KT/KT) (MB)    (FT/S) (FT/S/D)
BUOY 41004       1750   83 85   70/ 10/ 12 1018.3F   3/ 9   3/150/ 9
BUOY 41008       1750   84 85   60/ 14/ 17 1018.1F   4/ 8   2/120/ 8
FOLLY BEACH CMAN 1800   85      70/ 13/ 15 1019.2F
CAPERS NS BUOY   1808   84 84   70/ 12/ 17 1018.7F
FRIPP NS BUOY    1808   84 86   80/ 14/ 17 1018.2F
5E ST. MARYS GA  1801      85                N/A     4/ 6


STATION/POSITION TIME  TEMP    WIND        PRES    WAVE   SWELL
                       AIR SEA DIR/SP/G            HT/PER HT/PER/DIR
                 (UTC) (F)     (DEG/KT/KT) (MB)    (FT/S) (FT/S/D)
FRYING PAN BUOY  1800   84 84   60/  8/ 10 1018.9F
BUOY 41025       1750   84 85   70/ 10/ 12 1019.9F   3/ 8   2/110/ 8
CAPE LOOKOUT NC  1800   83      50/  8/  9 1019.4F
BUOY 41002       1750   83 85   60/ 10/ 10 1017.9F   3/15   3/100/15
BUOY 41010       NOT AVBL
ST AUGUSTINE FL  1800   82 85   30/ 13/ 13 1017.7F

$$




USA.gov is the U.S. government's official web portal to all federal, state and local government web resources and services.